Weather History for KTYR - May, 2014

Change the Weather History Date:

Thursday, May 1, 2014

  Actual Average Record
Temperature  
Mean Temperature 57 °F 69 °F  
Max Temperature 75 °F 79 °F 100 °F (1902)
Min Temperature 38 °F 59 °F 38 °F (1903)
Degree Days  
Heating Degree Days 8 1  
Month to date heating degree days 8 1  
Since 1 July heating degree days 2526 2263  
Cooling Degree Days 0 5  
Month to date cooling degree days 0 5  
Year to date cooling degree days 132 117  
Growing Degree Days 6 (Base 50)    
Moisture  
Dew Point 35 °F    
Average Humidity 52    
Maximum Humidity 85    
Minimum Humidity 19    
Precipitation  
Precipitation 0.00 in 0.15 in 4.03 in (1944)
Month to date precipitation 0.00 0.15  
Year to date precipitation 8.77 14.31  
Snow  
Snow 0.00 in - - ()
Month to date snowfall 0.0  
Since 1 July snowfall 1.2  
Snow Depth 0.00 in    
Sea Level Pressure  
Sea Level Pressure 30.09 in    
Wind  
Wind Speed 6 mph (West)    
Max Wind Speed 20 mph    
Max Gust Speed 24 mph    
Visibility 10 miles    
Events Rain    
T = Trace of Precipitation, MM = Missing Value Source: NWS Daily Summary

Daily Weather History Graph

Daily Weather History Graph

Search for Another Location

Airport or City:

Trip Planner

Search our weather history database for the weather conditions in past years. The results will help you decide how hot, cold, wet, or windy it might be!

Date:

Astronomy

May. 01, 2014 Rise Set
Actual Time 6:35 AM CDT 8:02 PM CDT
Civil Twilight 6:09 AM CDT 8:28 PM CDT
Nautical Twilight 5:37 AM CDT 9:00 PM CDT
Astronomical Twilight 5:05 AM CDT 9:32 PM CDT
Moon 8:26 AM CDT (5/1) 10:33 PM CDT (5/1)
Length of Visible Light 14h 19m
Length of Day
13h 27m
Waxing Crescent, 7% of the Moon is Illuminated
May 1
Waxing Crescent
May 6
First Quarter
May 14
Full
May 21
Last Quarter
May 28
New

Hourly Weather History & Observations

Time (CDT) Temp. Windchill Dew Point Humidity Pressure Visibility Wind Dir Wind Speed Gust Speed Precip Events Conditions
12:53 AM 48.0 °F - 39.9 °F 74% 30.14 in 10.0 mi Calm Calm - N/A   Clear
1:53 AM 46.9 °F - 39.0 °F 74% 30.14 in 10.0 mi Calm Calm - N/A   Clear
2:53 AM 44.1 °F - 37.0 °F 76% 30.14 in 10.0 mi Calm Calm - N/A   Clear
3:53 AM 42.1 °F - 37.0 °F 82% 30.14 in 10.0 mi Calm Calm - N/A   Clear
4:53 AM 39.9 °F 36.7 °F 36.0 °F 86% 30.14 in 10.0 mi SSW 4.6 mph - N/A   Clear
5:53 AM 43.0 °F - 36.0 °F 76% 30.12 in 10.0 mi Calm Calm - N/A   Clear
7:53 AM 51.1 °F - 39.0 °F 63% 30.14 in 10.0 mi WSW 3.5 mph - N/A   Clear
8:53 AM 57.0 °F - 39.9 °F 53% 30.15 in 10.0 mi WSW 5.8 mph - N/A   Clear
9:53 AM 62.1 °F - 37.9 °F 41% 30.16 in 10.0 mi West 4.6 mph - N/A   Clear
10:53 AM 66.0 °F - 34.0 °F 30% 30.15 in 10.0 mi West 8.1 mph - N/A   Clear
11:53 AM 70.0 °F - 30.0 °F 23% 30.13 in 10.0 mi West 11.5 mph 17.3 mph 0.00 in Rain Light Rain
12:53 PM 70.0 °F - 28.9 °F 22% 30.11 in 10.0 mi WNW 15.0 mph 23.0 mph 0.00 in   Clear
1:53 PM 72.0 °F - 30.9 °F 22% 30.08 in 10.0 mi North 13.8 mph 20.7 mph 0.00 in Rain Light Rain
2:53 PM 73.0 °F - 28.9 °F 20% 30.06 in 10.0 mi NW 19.6 mph 23.0 mph N/A   Clear
3:53 PM 73.0 °F - 28.9 °F 20% 30.04 in 10.0 mi NNW 10.4 mph 18.4 mph N/A   Clear
4:53 PM 73.0 °F - 30.9 °F 21% 30.02 in 10.0 mi West 6.9 mph - N/A   Clear
5:53 PM 73.0 °F - 30.9 °F 21% 30.01 in 10.0 mi WNW 15.0 mph - N/A   Clear
6:53 PM 71.1 °F - 30.9 °F 23% 30.01 in 10.0 mi NW 9.2 mph - N/A   Clear
8:53 PM 64.0 °F - 36.0 °F 35% 30.04 in 10.0 mi Calm Calm - N/A   Clear
9:53 PM 60.1 °F - 41.0 °F 49% 30.06 in 10.0 mi Calm Calm - N/A   Clear
10:53 PM 62.1 °F - 39.0 °F 43% 30.06 in 10.0 mi Calm Calm - N/A   Clear
11:53 PM 55.0 °F - 42.1 °F 62% 30.05 in 10.0 mi SSE 3.5 mph - N/A   Clear